Showing default

ORBCOMM FM 103, 40091

Orbit data source: Space-Track

ORBCOMM FM 103, 40091 is a payload satellite owned by Orbcomm (US) in LEO that was launched on Mon, 14 Jul 2014 UTC via an FALCON 9 launch vehicle from the Air Force Eastern Test Range (AFETR). Payload-class satellites include a variety of spacecraft equipped with specific instruments for various scientific and technological missions. These include communications satellites like Starlink; space stations such as the ISS; scientific satellites like the Hubble; Earth observation satellites from companies like Planet Labs, Umbra, and HawkEye 360; GPS; miniature CubeSats for education and research; and military/defense satellites.

Loading next visibility...
Identifier
40091, 2014-040F
Orbit
LEO
Country
Flag of USUS / ORB
Related business
Manufacturer
SNC Louisville
Mission
Non-operational Commercial Communications
Bus & Motor
SN-100A, Unknown motor
Mass
172 kg wet, 158 kg dry
Launch date (UTC)
2014-07-14 (11 years ago)
Launch vehicle
FALCON 9
Launch site
Air Force Eastern Test Range (AFETR)
Object type
Payload
Rocket body
Debris
Shape & HBR
Box + 1 Pan + 1 Ant, 10.3 m
Radar Cross Section
2.222 m², Medium (>0.1 m² and < 1m²)

Expand to show TLE details & history
Last TLE update: 12 hours ago

TLE from 12 hours ago
0 ORBCOMM FM 103
1 40091U 14040F   25299.80302292  .00001012  00000-0  25257-3 0  9994
2 40091  47.0038 116.1347 0001790 180.3101 179.7784 14.58408186583310
Epoch: 2025-10-26T19:16Z
TLE epoch observation values (Epoch: 2025-10-26T19:16:21.180Z)
Latitude
0.00001°
Longitude
151.63247°
Altitude
699.801 km
Speed
7.507 km/s
True Right ascension
07h 44m 32s
True Declination
0° 00' 00"
Sunlit
Object was in daylight at epoch
Visualization orbit readout
Latitude
Unknown
Longitude
Unknown
Altitude
Unknown
Speed
Unknown
Apparent Right ascension
Unknown
Apparent Declination
Unknown
Sunlit
N/A
Visualization observer readout
Local Sidereal Time
02:48:59
Azimuth
Unknown
Elevation
Unknown
Doppler factor
Unknown
Orbital elements
Apogee altitude
700.82 km
Perigee altitude
698.286 km
Semi-major axis
7,077.69 km
Eccentricity
0.00018
Inclination
47.0038°
RAAN
116.1347°
Arg. of periapsis
180.3101°
True anomaly
179.77848°
Mean anomaly
179.7784°
Eccentric anomaly
179.77844°
Mean motion
3.64507 °/min
Orbital period
98.76 mins
BSTAR
0.00025257
Loading maneuver chart data...
Computing Atmospheric mass density...
Loading historical data...
Loading historical data...
Loading historical data...
Loading historical data...
Loading historical data...
Loading historical data...
Loading historical data...

Documentation

Showing up to 5 results
|